Lid_Strength_Index
9 9 8 9 9 8 4 4 4 5 5 6 6 5 5 4 3 3 3 2 2 2 0 0 1 3 3 2 1 1 1 2
9 9 9 9 9 7 5 2 3 3 4 5 5 4 3 3 3 2 3 2 2 2 2 2 2 2 3 3 2 2 2 1
10 10 10 10 9 7 5 3 3 3 3 4 4 4 4 3 3 3 3 3 2 2 2 3 3 3 3 3 3 4 3 2
11 10 10 10 9 8 5 4 4 4 4 4 5 5 5 5 5 5 5 4 4 4 4 4 4 3 4 5 5 4 6 4
10 10 10 9 9 8 7 5 4 4 4 4 5 6 7 6 5 6 5 5 5 5 5 5 5 5 6 6 5 6 5 7
11 11 11 9 8 7 6 4 4 4 4 5 6 7 6 6 7 7 6 6 6 6 7 6 6 6 6 7 7 8 8 8
10 9 9 8 7 7 6 5 5 5 6 6 7 8 7 7 7 7 6 6 6 7 7 7 7 7 7 8 8 9 10 9
10 10 10 7 7 7 6 5 6 6 6 6 7 7 7 7 7 7 7 8 7 7 7 7 7 7 8 8 10 10 11 12
10 9 8 7 6 6 6 6 7 6 6 6 6 7 8 8 8 8 8 8 8 8 8 7 7 7 9 10 11 12 12 12
10 9 8 7 7 7 7 8 7 6 6 6 7 8 9 9 9 9 9 8 8 9 9 9 8 8 11 12 13 13 13 13
9 8 7 7 7 7 7 7 6 6 6 6 7 9 9 9 9 10 10 10 9 9 10 10 10 10 10 12 13 13 14 14
11 10 7 5 6 7 7 6 6 6 6 7 8 9 8 10 10 10 10 10 10 11 10 10 11 11 13 13 14 14 14 14
11 10 10 9 8 7 7 6 6 6 7 8 9 9 9 10 10 11 11 11 11 11 11 11 11 12 13 14 14 14 15 15
11 10 10 9 8 8 7 6 6 7 8 9 9 10 10 11 11 12 12 12 12 12 12 12 12 12 13 14 14 15 15 15
10 10 10 8 8 8 7 7 7 7 8 9 9 9 10 10 11 12 12 12 13 13 13 13 13 13 13 15 15 15 15 15
10 10 9 9 8 7 7 8 8 8 8 9 9 9 9 10 13 13 13 14 14 13 14 14 13 13 14 15 15 15 16 16
10 9 10 9 8 8 8 9 9 8 9 10 10 10 11 12 12 13 14 14 15 15 15 15 14 13 13 14 15 16 16 16
11 11 10 9 9 9 10 10 9 10 11 12 12 12 13 13 13 14 15 15 15 16 16 15 15 14 14 14 15 16 17 17
11 11 11 10 9 9 10 11 11 12 13 13 13 14 14 14 15 15 16 16 16 16 16 16 16 14 13 14 15 16 17 17